Blacksburg, VA

3:05 AM EST on January 18, 2017 (GMT -0500)
Virginia Tech

Weather History for KBCB - May, 2014

Change the Weather History Date:

Wednesday, May 21, 2014

  Actual Average Record
Temperature  
Mean Temperature 67 °F 61 °F  
Max Temperature 80 °F 73 °F 88 °F (1996)
Min Temperature 54 °F 49 °F 34 °F (2002)
Degree Days  
Heating Degree Days 0 5  
Month to date heating degree days 102 160  
Since 1 July heating degree days 5435 5365  
Cooling Degree Days 2 1  
Month to date cooling degree days 26 10  
Year to date cooling degree days 26 13  
Growing Degree Days 18 (Base 50)    
Moisture  
Dew Point 61 °F    
Average Humidity 77    
Maximum Humidity 100    
Minimum Humidity 54    
Precipitation  
Precipitation 0.00 in 0.14 in 0.90 in (1965)
Month to date precipitation 2.43 2.76  
Year to date precipitation 14.58 15.77  
Snow  
Snow 0.00 in - - ()
Month to date snowfall 0.0  
Since 1 July snowfall 34.4  
Snow Depth 0.00 in    
Sea Level Pressure  
Sea Level Pressure 30.09 in    
Wind  
Wind Speed 5 mph (West)    
Max Wind Speed 10 mph    
Max Gust Speed 18 mph    
Visibility 10 miles    
Events      
T = Trace of Precipitation, MM = Missing Value Source: NWS Daily Summary

Daily Weather History Graph

Daily Weather History Graph

Search for Another Location

Airport or City:

Trip Planner

Search our weather history database for the weather conditions in past years. The results will help you decide how hot, cold, wet, or windy it might be!

Date:

Astronomy

May. 21, 2014 Rise Set
Actual Time 6:08 AM EDT 8:28 PM EDT
Civil Twilight 5:39 AM EDT 8:57 PM EDT
Nautical Twilight 5:02 AM EDT 9:34 PM EDT
Astronomical Twilight 4:22 AM EDT 10:14 PM EDT
Moon 1:40 AM EDT (5/21) 1:17 PM EDT (5/21)
Length of Visible Light 15h 18m
Length of Day
14h 19m
Waning Gibbous, 49% of the Moon is Illuminated
May 21
Waning Gibbous
May 28
New
Jun 5
First Quarter
Jun 13
Full
Jun 19
Last Quarter

Hourly Weather History & Observations

Time (EDT) Temp. Heat Index Dew Point Humidity Pressure Visibility Wind Dir Wind Speed Gust Speed Precip Events Conditions
12:15 AM 66.2 °F - 60.8 °F 83% 30.14 in 10.0 mi Calm Calm - N/A   Overcast
12:35 AM 64.4 °F - 59.0 °F 83% 30.14 in 10.0 mi Calm Calm - N/A   Overcast
12:55 AM 62.6 °F - 59.0 °F 88% 30.14 in 10.0 mi WNW 3.5 mph - N/A   Overcast
1:15 AM 60.8 °F - 59.0 °F 94% 30.14 in 10.0 mi WNW 3.5 mph - N/A   Scattered Clouds
1:35 AM 60.8 °F - 59.0 °F 94% 30.14 in 10.0 mi West 3.5 mph - N/A   Clear
1:55 AM 60.8 °F - 59.0 °F 94% 30.13 in 10.0 mi West 3.5 mph - N/A   Clear
2:15 AM 60.8 °F - 59.0 °F 94% 30.12 in 10.0 mi Calm Calm - N/A   Clear
2:35 AM 60.8 °F - 59.0 °F 94% 30.12 in 10.0 mi West 3.5 mph - N/A   Clear
2:55 AM 60.8 °F - 59.0 °F 94% 30.12 in 10.0 mi West 5.8 mph - N/A   Clear
3:15 AM 60.8 °F - 57.2 °F 88% 30.12 in 10.0 mi West 3.5 mph - N/A   Clear
3:35 AM 60.8 °F - 57.2 °F 88% 30.12 in 10.0 mi West 3.5 mph - N/A   Clear
3:55 AM 60.8 °F - 57.2 °F 88% 30.12 in 10.0 mi Calm Calm - N/A   Clear
4:15 AM 60.8 °F - 57.2 °F 88% 30.12 in 10.0 mi Calm Calm - N/A   Clear
4:35 AM 57.2 °F - 57.2 °F 100% 30.11 in 10.0 mi Calm Calm - N/A   Clear
4:55 AM 57.2 °F - 57.2 °F 100% 30.12 in 10.0 mi Calm Calm - N/A   Clear
5:15 AM 55.4 °F - 55.4 °F 100% 30.11 in 10.0 mi Calm Calm - N/A   Clear
5:35 AM 55.4 °F - 55.4 °F 100% 30.11 in 10.0 mi Calm Calm - N/A   Clear
5:55 AM 55.4 °F - 55.4 °F 100% 30.11 in 7.0 mi Calm Calm - N/A   Clear
6:15 AM 55.4 °F - 55.4 °F 100% 30.11 in 5.0 mi Calm Calm - N/A   Clear
6:35 AM 55.4 °F - 55.4 °F 100% 30.11 in 7.0 mi Calm Calm - N/A   Clear
6:55 AM 57.2 °F - 57.2 °F 100% 30.11 in 10.0 mi Calm Calm - N/A   Clear
7:15 AM 57.2 °F - 57.2 °F 100% 30.13 in 10.0 mi Calm Calm - N/A   Clear
7:35 AM 60.8 °F - 60.8 °F 100% 30.14 in 10.0 mi Calm Calm - N/A   Clear
7:55 AM 62.6 °F - 59.0 °F 88% 30.14 in 10.0 mi Calm Calm - N/A   Clear
8:15 AM 64.4 °F - 59.0 °F 83% 30.14 in 10.0 mi Calm Calm - N/A   Clear
8:35 AM 64.4 °F - 60.8 °F 88% 30.14 in 10.0 mi SSW 3.5 mph - N/A   Clear
8:55 AM 66.2 °F - 60.8 °F 83% 30.13 in 10.0 mi Calm Calm - N/A   Clear
9:15 AM 71.6 °F - 60.8 °F 69% 30.13 in 10.0 mi West 5.8 mph - N/A   Clear
9:35 AM 71.6 °F - 59.0 °F 64% 30.12 in 10.0 mi West 5.8 mph - N/A   Clear
9:55 AM 73.4 °F - 60.8 °F 65% 30.12 in 10.0 mi West 8.1 mph - N/A   Clear
10:15 AM 73.4 °F - 60.8 °F 65% 30.11 in 10.0 mi WSW 5.8 mph - N/A   Clear
10:35 AM 75.2 °F - 60.8 °F 61% 30.10 in 10.0 mi West 8.1 mph - N/A   Scattered Clouds
10:55 AM 75.2 °F - 60.8 °F 61% 30.10 in 10.0 mi West 9.2 mph - N/A   Scattered Clouds
11:15 AM 75.2 °F - 60.8 °F 61% 30.10 in 10.0 mi WSW 10.4 mph - N/A   Mostly Cloudy
11:35 AM 75.2 °F - 62.6 °F 65% 30.10 in 10.0 mi West 8.1 mph - N/A   Mostly Cloudy
11:55 AM 75.2 °F - 62.6 °F 65% 30.10 in 10.0 mi West 8.1 mph 18.4 mph N/A   Mostly Cloudy
12:15 PM 75.2 °F - 62.6 °F 65% 30.10 in 10.0 mi West 6.9 mph - N/A   Mostly Cloudy
12:35 PM 78.8 °F - 62.6 °F 57% 30.10 in 10.0 mi West 6.9 mph 18.4 mph N/A   Scattered Clouds
12:55 PM 78.8 °F - 62.6 °F 57% 30.09 in 10.0 mi West 10.4 mph 17.3 mph N/A   Scattered Clouds
1:15 PM 78.8 °F - 60.8 °F 54% 30.09 in 10.0 mi West 10.4 mph 17.3 mph N/A   Mostly Cloudy
1:35 PM 78.8 °F - 62.6 °F 57% 30.09 in 10.0 mi WNW 6.9 mph - N/A   Mostly Cloudy
1:55 PM 78.8 °F - 62.6 °F 57% 30.08 in 10.0 mi WSW 10.4 mph - N/A   Mostly Cloudy
2:15 PM 80.6 °F 81.8 °F 62.6 °F 54% 30.08 in 10.0 mi West 10.4 mph 16.1 mph N/A   Mostly Cloudy
2:35 PM 80.6 °F 81.8 °F 62.6 °F 54% 30.07 in 10.0 mi WNW 8.1 mph 18.4 mph N/A   Scattered Clouds
2:55 PM 78.8 °F - 60.8 °F 54% 30.07 in 10.0 mi West 8.1 mph 16.1 mph N/A   Scattered Clouds
3:35 PM 78.8 °F - 62.6 °F 57% 30.07 in 10.0 mi West 8.1 mph - N/A   Scattered Clouds
3:55 PM 77.0 °F - 62.6 °F 61% 30.05 in 10.0 mi WSW 9.2 mph - N/A   Mostly Cloudy
4:15 PM 78.8 °F - 62.6 °F 57% 30.04 in 10.0 mi SW 4.6 mph - N/A   Scattered Clouds
4:35 PM 78.8 °F - 62.6 °F 57% 30.04 in 10.0 mi West 9.2 mph - N/A   Mostly Cloudy
4:55 PM 78.8 °F - 60.8 °F 54% 30.03 in 10.0 mi West 8.1 mph - N/A   Scattered Clouds
5:15 PM 78.8 °F - 60.8 °F 54% 30.03 in 10.0 mi West 8.1 mph 18.4 mph N/A   Scattered Clouds
5:35 PM 77.0 °F - 62.6 °F 61% 30.03 in 10.0 mi West 5.8 mph - N/A   Mostly Cloudy
5:55 PM 77.0 °F - 62.6 °F 61% 30.02 in 10.0 mi WSW 8.1 mph - N/A   Mostly Cloudy
6:15 PM 77.0 °F - 62.6 °F 61% 30.03 in 10.0 mi WSW 6.9 mph - N/A   Mostly Cloudy
6:35 PM 77.0 °F - 62.6 °F 61% 30.02 in 10.0 mi West 3.5 mph - N/A   Mostly Cloudy
6:55 PM 77.0 °F - 62.6 °F 61% 30.02 in 10.0 mi WSW 5.8 mph - N/A   Overcast
7:15 PM 77.0 °F - 62.6 °F 61% 30.03 in 10.0 mi West 9.2 mph - N/A   Scattered Clouds
7:35 PM 75.2 °F - 62.6 °F 65% 30.03 in 10.0 mi WNW 5.8 mph - N/A   Scattered Clouds
7:55 PM 75.2 °F - 62.6 °F 65% 30.04 in 10.0 mi West 4.6 mph - N/A   Mostly Cloudy
8:15 PM 73.4 °F - 62.6 °F 69% 30.04 in 10.0 mi West 3.5 mph - N/A   Mostly Cloudy
8:35 PM 73.4 °F - 62.6 °F 69% 30.03 in 10.0 mi West 4.6 mph - N/A   Mostly Cloudy
8:55 PM 73.4 °F - 62.6 °F 69% 30.04 in 10.0 mi WSW 4.6 mph - N/A   Scattered Clouds
9:15 PM 73.4 °F - 62.6 °F 69% 30.04 in 10.0 mi WSW 4.6 mph - N/A   Mostly Cloudy
9:35 PM 73.4 °F - 62.6 °F 69% 30.05 in 10.0 mi Calm Calm - N/A   Overcast
9:55 PM 73.4 °F - 62.6 °F 69% 30.06 in 10.0 mi WSW 4.6 mph - N/A   Mostly Cloudy
10:15 PM 73.4 °F - 62.6 °F 69% 30.05 in 10.0 mi West 5.8 mph - N/A   Scattered Clouds
10:35 PM 71.6 °F - 62.6 °F 73% 30.05 in 10.0 mi West 3.5 mph - N/A   Scattered Clouds
10:55 PM 71.6 °F - 62.6 °F 73% 30.06 in 10.0 mi WNW 4.6 mph - N/A   Scattered Clouds
11:15 PM 71.6 °F - 62.6 °F 73% 30.04 in 10.0 mi WNW 3.5 mph - N/A   Scattered Clouds
11:35 PM 71.6 °F - 62.6 °F 73% 30.05 in 10.0 mi West 4.6 mph - N/A   Clear
11:55 PM 69.8 °F - 62.6 °F 78% 30.06 in 10.0 mi Calm Calm - N/A   Scattered Clouds